STARLINK-4729, 53804

Orbit data source: Space-Track

STARLINK-4729, 53804 is a payload satellite owned by SpaceX/Seattle (US) in LEO that was launched on Sun, 11 Sep 2022 UTC via an FALCON 9 launch vehicle from the Air Force Eastern Test Range (AFETR). Payload-class satellites include a variety of spacecraft equipped with specific instruments for various scientific and technological missions. These include communications satellites like Starlink; space stations such as the ISS; scientific satellites like the Hubble; Earth observation satellites from companies like Planet Labs, Umbra, and HawkEye 360; GPS; miniature CubeSats for education and research; and military/defense satellites.

Loading next visibility...
Identifier
53804, 2022-111AH
Orbit
LEO
Country
Flag of USUS
Related business
Manufacturer
SpaceX/Seattle
Mission
Operational Commercial Communications
Bus & Motor
STARLINK, Unknown motor
Mass
305 kg wet, ~290 kg dry
Launch date (UTC)
2022-09-11 (4 years ago)
Launch vehicle
FALCON 9
Launch site
Air Force Eastern Test Range (AFETR)
Object type
Payload
Rocket body
Debris
Shape & HBR
Box + 1 Pan, 10.1 m
Radar Cross Section
13.562 m², Large (>1 m²)

Expand to show TLE details & history
Last TLE update: 3 days ago

TLE from 3 days ago
0 STARLINK-4729
1 53804U 22111AH  26170.99212558 -.00000094  00000-0  12183-4 0  9997
2 53804  53.1586 159.5384 0001177  86.0210 274.0916 15.08831761209334
Epoch: 2026-06-19T23:48Z
TLE epoch observation values (Epoch: 2026-06-19T23:48:39.650Z)
Latitude
Longitude
-105.83996°
Altitude
540.602 km
Speed
7.593 km/s
True Right ascension
10h 38m 09s
True Declination
0° 00' 00"
Sunlit
Object was in daylight at epoch
Visualization orbit readout
Latitude
Unknown
Longitude
Unknown
Altitude
Unknown
Speed
Unknown
Apparent Right ascension
Unknown
Apparent Declination
Unknown
Sunlit
N/A
Visualization observer readout
Local Sidereal Time
00:50:12
Azimuth
Unknown
Elevation
Unknown
Doppler factor
Unknown
Orbital elements
Apogee altitude
540.837 km
Perigee altitude
539.209 km
Semi-major axis
6,918.16 km
Eccentricity
0.00012
Inclination
53.1586°
RAAN
159.5384°
Arg. of periapsis
86.021°
True anomaly
274.07815°
Mean anomaly
274.0916°
Eccentric anomaly
274.08487°
Mean motion
3.77187 °/min
Orbital period
95.44 mins
BSTAR
0.000012183
Loading maneuver chart data...
Computing Atmospheric mass density...

Documentation

Showing up to 5 results
|